Flag for Germany Weather past 2 weeks in Bad Nauheim, Hesse, Germany

Now
43 °F

Partly sunny.


Feels Like: 37 °F
Forecast: 34 / 45 °F
Wind: 13 mph from West

Location: Giessen

Current Time: Apr 1, 2015 at 4:38:07 PM

Latest Report: Apr 1, 2015 at 4:00 PM


Visibility: 16 mi

Pressure: 30.05 "Hg

Humidity: 64%

Dew point: 32 °F

Location of Bad NauheimLocation

Historic Weather in Bad Nauheim — Graph

°F

Bad Nauheim temperature yesterday

Maximum temperature yesterday: 52 °F (at 1:00 PM)
Minimum temperature yesterday: 39 °F (at 3:00 AM)
Average temperature yesterday: 46 °F

Past Weeks' High & Low Weather Summary

 TemperatureHumidityPressure
High63 °F (Mar 18, 3:00 PM)100% (Mar 20, 7:00 AM)30.34 "Hg (Mar 20, 7:00 AM)
Low26 °F (Mar 23, 6:00 AM)35% (Mar 20, 5:00 PM)29.29 "Hg (Mar 31, 7:00 AM)
Average44 °F78%29.96 "Hg
* Reported Mar 17 2:00 PM — Apr 1 3:00 PM, Bad Nauheim, Weather by CustomWeather, © 2015

Note: Actual official high and low records may vary slightly from our data, if they occured in-between our weather recording intervals... More about our weather records

Advertising

Bad Nauheim weather history for previous 24 hours

 ConditionsComfort  
Time TempWeatherWind HumidityBarometerVisibility
3:00 PM
Wed, Apr 1
45 °FPartly sunny.10 mph65%30.03 "Hg34 mi
2:00 PM42 °FOvercast.13 mph71%30.05 "Hg22 mi
1:00 PM42 °FOvercast.12 mph69%30.05 "Hg22 mi
12:00 PM42 °FScattered clouds.10 mph69%30.04 "Hg19 mi
11:00 AM40 °FPartly sunny.7 mph82%30.03 "Hg28 mi
10:00 AM38 °FScattered clouds.8 mph91%30.01 "Hg10 mi
9:00 AM35 °FRain. Low clouds.6 mph92%29.98 "Hg4 mi
8:00 AM38 °FOvercast.9 mph74%29.94 "Hg25 mi
7:00 AM38 °FHaze.10 mph70%29.91 "Hg28 mi
6:00 AM38 °FPassing clouds.9 mph77%29.89 "Hg25 mi
5:00 AM35 °FLow clouds.6 mph92%29.88 "Hg18 mi
4:00 AM36 °FLow clouds.13 mph87%29.87 "Hg40 mi
3:00 AM40 °FOvercast.9 mph72%29.85 "Hg28 mi
2:00 AM39 °FPassing clouds.10 mph71%29.85 "Hg43 mi
1:00 AM40 °FOvercast.9 mph71%29.84 "Hg43 mi
12:00 AM40 °FDrizzle. Overcast.8 mph87%29.80 "Hg31 mi
11:00 PM
Tue, Mar 31
41 °FOvercast.6 mph82%29.81 "Hg34 mi
10:00 PM40 °FOvercast.10 mph84%29.79 "Hg43 mi
9:00 PM41 °FRain. Low clouds.17 mph82%29.81 "Hg4 mi
8:00 PM41 °FPassing clouds.6 mph82%29.76 "Hg40 mi
7:00 PM48 °FPartly sunny.12 mph47%29.72 "Hg43 mi
6:00 PM51 °FScattered clouds.14 mph47%29.67 "Hg11 mi
5:00 PM49 °FPassing clouds.14 mph55%29.62 "Hg43 mi
4:00 PM51 °FSunny.14 mph53%29.58 "Hg8 mi
Weather by CustomWeather, © 2015

See weather overviewHow to use our weather pages